EW6519 Weather Reports


Display with metric or nautical units.
time (UTC)temp
F
wind
direction
speed
MPH
gust
MPH
rain 1hr
in
rain 24hr
in
rain mn
in
humidity
%
barometer
mb
20260507114532 44 286 0.0 0.0 0.00 0.00 0.00 72 1015.1
20260507113034 44 20 0.0 0.0 0.00 0.00 0.00 74 1015.1
20260507111527 44 314 0.0 0.0 0.00 0.00 0.00 74 1014.9
20260507110033 43 293 0.0 2.0 0.00 0.00 0.00 75 1014.7
20260507104523 43 261 0.0 0.0 0.00 0.00 0.00 76 1014.4
20260507103028 43 292 0.0 0.0 0.00 0.00 0.00 79 1014.5
20260507101531 44 284 0.0 0.0 0.00 0.00 0.00 79 1014.5
20260507100022 44 291 0.0 0.0 0.00 0.00 0.00 80 1014.4
20260507094518 44 298 0.0 0.0 0.00 0.00 0.00 81 1014.5
20260507093016 44 295 0.0 0.0 0.00 0.00 0.00 81 1014.4
20260507091518 44 294 0.0 0.0 0.00 0.00 0.00 81 1014.2
20260507090013 45 294 0.0 0.0 0.00 0.00 0.00 82 1014.2
20260507084514 45 308 0.0 0.0 0.00 0.02 0.00 83 1014.1
20260507083012 45 326 0.0 0.0 0.00 0.02 0.00 85 1014.0
20260507081511 45 326 0.0 0.0 0.00 0.02 0.00 86 1013.9
20260507080012 45 326 0.0 0.0 0.00 0.02 0.00 86 1014.0
20260507074509 45 326 0.0 0.0 0.00 0.07 0.00 87 1013.8
20260507073007 45 326 0.0 0.0 0.00 0.07 0.00 86 1013.9
20260507071508 45 326 0.0 0.0 0.00 0.07 0.00 85 1013.9
20260507070010 46 326 0.0 0.0 0.00 0.07 0.00 86 1013.7
20260507064504 46 326 0.0 0.0 0.00 0.23 0.00 86 1013.9
20260507063002 46 326 0.0 0.0 0.00 0.23 0.00 85 1014.0
20260507061502 46 326 0.0 0.0 0.00 0.23 0.00 85 1014.0
20260507060101 46 326 0.0 0.0 0.00 0.23 0.00 83 1014.0
20260507054558 47 326 0.0 0.0 0.00 0.37 0.00 83 1014.0
20260507053122 47 326 0.0 0.0 0.00 0.37 0.00 82 1014.0
20260507051556 47 326 0.0 0.0 0.00 0.37 0.00 81 1013.9
20260507050053 48 326 0.0 0.0 0.00 0.37 0.00 81 1014.0
20260507044603 48 326 0.0 0.0 0.00 0.43 0.00 79 1014.1
20260507043051 49 326 0.0 0.0 0.00 0.43 0.00 77 1014.2
20260507041551 49 326 0.0 0.0 0.00 0.43 0.00 77 1014.2
20260507040048 49 326 0.0 0.0 0.00 0.43 0.00 76 1014.0
20260507034547 50 326 0.0 0.0 0.00 0.44 0.43 75 1014.0
20260507033058 50 4 0.0 0.0 0.00 0.44 0.43 74 1014.1
20260507031556 49 4 0.0 0.0 0.00 0.44 0.43 73 1014.1
20260507024602 50 4 0.0 0.0 0.00 0.48 0.43 72 1014.1
20260507023040 50 4 0.0 0.0 0.00 0.48 0.43 71 1014.0
20260507021547 51 4 0.0 0.0 0.00 0.48 0.43 70 1013.9
20260507020051 52 4 0.0 0.0 0.00 0.48 0.43 69 1013.8
20260507014548 52 4 0.0 0.0 0.00 0.59 0.43 68 1013.6
20260507013040 53 4 0.0 0.0 0.00 0.59 0.43 66 1013.6
20260507011537 53 4 0.0 0.0 0.00 0.59 0.43 65 1013.3
20260507010040 54 6 0.0 0.0 0.00 0.59 0.43 64 1013.2
20260507004532 54 283 0.0 0.0 0.00 0.60 0.43 62 1013.1
20260507003031 55 292 0.0 1.0 0.00 0.60 0.43 61 1013.2
20260507001534 55 339 0.0 0.0 0.00 0.60 0.43 59 1012.9
20260507000029 56 20 0.0 1.0 0.00 0.60 0.43 60 1012.9
20260506234528 57 292 0.0 2.0 0.00 0.61 0.43 59 1012.5
20260506233027 57 112 0.0 5.0 0.00 0.61 0.43 58 1012.4
20260506231527 57 302 0.0 3.0 0.00 0.61 0.43 57 1012.4
20260506230026 57 340 0.0 3.0 0.00 0.61 0.43 58 1012.0
20260506224526 58 281 0.0 3.0 0.00 0.62 0.43 56 1012.2
20260506223025 57 288 0.0 4.0 0.00 0.62 0.43 55 1012.3
20260506221524 58 28 1.0 5.0 0.00 0.62 0.43 53 1012.5
20260506220024 59 89 0.0 1.0 0.00 0.62 0.43 54 1012.7
20260506214523 59 298 0.0 0.0 0.00 0.65 0.43 52 1012.6
20260506213021 60 293 0.0 3.0 0.00 0.65 0.43 52 1012.4
20260506211524 59 23 0.0 7.0 0.00 0.65 0.43 53 1012.3
20260506210024 59 285 1.0 5.0 0.00 0.65 0.43 51 1012.2
20260506204520 59 285 0.0 0.0 0.00 0.81 0.43 51 1012.0
20260506203019 59 319 0.0 6.0 0.00 0.81 0.43 56 1012.0
20260506201520 60 248 0.0 4.0 0.00 0.81 0.43 56 1012.1
20260506200019 60 81 1.0 7.0 0.00 0.81 0.43 54 1012.1
20260506194518 60 265 0.0 3.0 0.00 1.01 0.43 52 1012.2
20260506193017 60 283 1.0 6.0 0.00 1.01 0.43 50 1012.2
20260506191518 60 266 0.0 6.0 0.00 1.01 0.43 53 1011.7
20260506190015 61 305 2.0 5.0 0.00 1.01 0.43 51 1011.7
20260506184513 61 233 2.0 5.0 0.00 1.01 0.43 51 1011.6
20260506183012 59 86 0.0 11.0 0.00 1.01 0.43 54 1011.7
20260506181509 59 288 1.0 7.0 0.00 1.01 0.43 55 1011.6
20260506180013 59 50 0.0 9.0 0.00 1.01 0.43 55 1011.9
20260506174509 59 291 3.0 9.0 0.00 1.01 0.43 52 1012.0
20260506173016 58 273 0.0 9.0 0.00 1.01 0.43 54 1012.2
20260506171505 57 345 1.0 8.0 0.00 1.01 0.43 55 1012.3
20260506170004 56 281 0.0 4.0 0.00 1.01 0.43 58 1012.4
20260506164503 56 48 2.0 7.0 0.00 1.01 0.43 63 1012.4
20260506163107 55 280 0.0 5.0 0.00 1.01 0.43 64 1012.4
20260506161641 54 65 0.0 4.0 0.00 1.01 0.43 66 1012.4
20260506160111 53 10 0.0 4.0 0.00 1.01 0.43 66 1012.4
20260506154600 53 30 1.0 7.0 0.00 1.01 0.43 69 1012.1
20260506153058 53 32 3.0 8.0 0.00 1.01 0.43 69 1012.0
20260506151600 52 355 1.0 7.0 0.00 1.01 0.43 73 1012.3
20260506150057 52 302 2.0 7.0 0.00 1.01 0.43 72 1011.6
20260506144555 51 286 0.0 4.0 0.00 1.01 0.43 77 1011.5
20260506143052 50 299 0.0 3.0 0.00 1.01 0.43 78 1011.2
20260506141550 49 51 0.0 5.0 0.00 1.01 0.43 81 1011.1
20260506140050 49 290 0.0 3.0 0.00 1.01 0.43 84 1010.9
20260506134549 48 297 0.0 5.0 0.00 1.01 0.43 84 1010.9
20260506133046 48 18 0.0 0.0 0.00 1.01 0.43 86 1010.9
20260506131550 47 276 0.0 5.0 0.00 1.01 0.43 88 1010.6
20260506130058 46 288 0.0 4.0 0.00 1.01 0.43 89 1010.2
20260506124551 45 280 1.0 5.0 0.00 1.01 0.43 89 1010.5
20260506123042 45 276 1.0 6.0 0.00 1.01 0.43 90 1010.4
20260506121539 45 307 0.0 4.0 0.00 1.01 0.43 91 1010.1
20260506120037 44 26 0.0 0.0 0.00 1.01 0.43 92 1009.8